• In Moldova, Republic
  • List of Countries
  • For 7 days
  • Water Temperature
  • Satellite Maps
  • Weather Map
  • Weather Widgets
  • user-avatar
    Login

    Hourly Weather Perth

    Today, 27 June, Tuesday

    Time Temperature Precipitation Wind Pressure Humidity
    00:00 +9°C° 0 mm 3 mps 769 mmHg 86%
    01:00 +9°C° 0 mm 2 mps 769 mmHg 89%
    02:00 +8°C° 0 mm 1 mps 768 mmHg 96%
    03:00 +8°C° 0 mm 1 mps 768 mmHg 95%
    04:00 +8°C° 0 mm 1 mps 768 mmHg 93%
    05:00 +8°C° 0 mm 1 mps 768 mmHg 92%
    06:00 +9°C° 0 mm 1 mps 769 mmHg 91%
    07:00 +9°C° 0 mm 1 mps 769 mmHg 89%
    08:00 +10°C° 0 mm 2 mps 769 mmHg 84%
    09:00 +13°C° 0 mm 2 mps 769 mmHg 76%
    10:00 +15°C° 0 mm 2 mps 769 mmHg 68%
    11:00 +17°C° 0 mm 2 mps 769 mmHg 60%
    12:00 +17°C° 0 mm 2 mps 769 mmHg 57%
    13:00 +18°C° 0 mm 2 mps 769 mmHg 54%
    14:00 +18°C° 0 mm 2 mps 769 mmHg 51%
    15:00 +17°C° 0 mm 2 mps 769 mmHg 54%
    16:00 +16°C° 0 mm 2 mps 769 mmHg 57%
    17:00 +16°C° 0 mm 2 mps 769 mmHg 60%
    18:00 +15°C° 0 mm 2 mps 770 mmHg 64%
    19:00 +13°C° 0 mm 2 mps 770 mmHg 67%
    20:00 +12°C° 0 mm 2 mps 770 mmHg 70%
    21:00 +11°C° 0 mm 3 mps 771 mmHg 74%
    22:00 +10°C° 0 mm 3 mps 771 mmHg 77%
    23:00 +10°C° 0 mm 3 mps 771 mmHg 81%

    Tomorrow, 28 June, Wednesday

    Time Temperature Precipitation Wind Pressure Humidity
    00:00 +10°C° 0 mm 3 mps 771 mmHg 83%
    01:00 +10°C° 0 mm 3 mps 771 mmHg 85%
    02:00 +10°C° 0 mm 4 mps 772 mmHg 88%
    03:00 +8°C° 0 mm 4 mps 772 mmHg 89%
    04:00 +8°C° 0 mm 4 mps 772 mmHg 91%
    05:00 +8°C° 0 mm 4 mps 772 mmHg 93%
    06:00 +8°C° 0 mm 4 mps 772 mmHg 93%
    07:00 +8°C° 0 mm 4 mps 772 mmHg 93%
    08:00 +8°C° 0 mm 4 mps 773 mmHg 93%
    09:00 +11°C° 0 mm 4 mps 773 mmHg 83%
    10:00 +13°C° 0 mm 4 mps 773 mmHg 73%
    11:00 +15°C° 0 mm 4 mps 773 mmHg 63%
    12:00 +17°C° 0 mm 4 mps 772 mmHg 58%
    13:00 +18°C° 0 mm 3 mps 772 mmHg 54%
    14:00 +19°C° 0 mm 3 mps 771 mmHg 49%
    15:00 +18°C° 0 mm 3 mps 771 mmHg 54%
    16:00 +17°C° 0 mm 3 mps 771 mmHg 58%
    17:00 +15°C° 0 mm 2 mps 771 mmHg 62%
    18:00 +13°C° 0 mm 3 mps 772 mmHg 66%
    19:00 +12°C° 0 mm 3 mps 772 mmHg 69%
    20:00 +11°C° 0 mm 3 mps 772 mmHg 72%
    21:00 +10°C° 0 mm 3 mps 772 mmHg 71%
    22:00 +10°C° 0 mm 3 mps 772 mmHg 70%
    23:00 +10°C° 0 mm 4 mps 772 mmHg 69%

    Day after tomorrow, 29 June, Thursday

    Time Temperature Precipitation Wind Pressure Humidity
    00:00 +8°C° 0 mm 4 mps 772 mmHg 68%
    01:00 +8°C° 0 mm 4 mps 772 mmHg 67%
    02:00 +8°C° 0 mm 4 mps 772 mmHg 66%
    03:00 +7°C° 0 mm 4 mps 772 mmHg 66%
    04:00 +7°C° 0 mm 4 mps 772 mmHg 67%
    05:00 +7°C° 0 mm 4 mps 772 mmHg 68%
    06:00 +7°C° 0 mm 4 mps 772 mmHg 68%
    07:00 +7°C° 0 mm 4 mps 772 mmHg 67%
    08:00 +7°C° 0 mm 5 mps 772 mmHg 67%
    09:00 +9°C° 0 mm 5 mps 772 mmHg 60%
    10:00 +12°C° 0 mm 5 mps 772 mmHg 53%
    11:00 +14°C° 0 mm 5 mps 771 mmHg 45%
    12:00 +15°C° 0 mm 4 mps 770 mmHg 42%
    13:00 +17°C° 0 mm 4 mps 770 mmHg 39%
    14:00 +18°C° 0 mm 3 mps 769 mmHg 36%
    15:00 +16°C° 0 mm 3 mps 768 mmHg 41%
    16:00 +14°C° 0 mm 3 mps 768 mmHg 46%
    17:00 +14°C° 0 mm 2 mps 768 mmHg 50%
    18:00 +11°C° 0 mm 3 mps 768 mmHg 53%
    19:00 +10°C° 0 mm 3 mps 767 mmHg 55%
    20:00 +9°C° 0 mm 3 mps 767 mmHg 58%
    21:00 +8°C° 0 mm 4 mps 767 mmHg 56%
    22:00 +8°C° 0 mm 4 mps 767 mmHg 54%
    23:00 +8°C° 0 mm 4 mps 767 mmHg 52%

    30 June, Friday

    Time Temperature Precipitation Wind Pressure Humidity
    00:00 +8°C° 0 mm 5 mps 766 mmHg 51%
    01:00 +8°C° 0 mm 5 mps 766 mmHg 50%
    02:00 +8°C° 0 mm 5 mps 765 mmHg 48%
    03:00 +8°C° 0 mm 5 mps 764 mmHg 48%
    04:00 +8°C° 0 mm 5 mps 764 mmHg 48%
    05:00 +8°C° 0 mm 5 mps 764 mmHg 48%
    06:00 +8°C° 0 mm 5 mps 764 mmHg 49%
    07:00 +8°C° 0 mm 5 mps 764 mmHg 50%
    08:00 +8°C° 0 mm 5 mps 764 mmHg 50%
    09:00 +10°C° 0 mm 6 mps 763 mmHg 49%
    10:00 +13°C° 0 mm 6 mps 763 mmHg 49%
    11:00 +15°C° 0 mm 6 mps 762 mmHg 48%
    12:00 +16°C° 0.3 mm 6 mps 761 mmHg 54%
    13:00 +16°C° 0.3 mm 7 mps 760 mmHg 60%
    14:00 +17°C° 0.3 mm 7 mps 760 mmHg 66%
    15:00 +16°C° 1 mm 6 mps 760 mmHg 75%
    16:00 +15°C° 1 mm 6 mps 760 mmHg 83%
    17:00 +15°C° 1 mm 5 mps 760 mmHg 91%
    18:00 +14°C° 0.1 mm 5 mps 760 mmHg 91%
    19:00 +13°C° 0.1 mm 4 mps 761 mmHg 91%
    20:00 +12°C° 0.1 mm 4 mps 761 mmHg 91%
    21:00 +12°C° 0 mm 4 mps 761 mmHg 90%
    22:00 +12°C° 0 mm 3 mps 762 mmHg 89%
    23:00 +11°C° 0 mm 3 mps 762 mmHg 88%

    1 July, Saturday

    Time Temperature Precipitation Wind Pressure Humidity
    00:00 +11°C° 0 mm 3 mps 761 mmHg 87%
    01:00 +12°C° 0 mm 4 mps 761 mmHg 86%
    02:00 +12°C° 0 mm 4 mps 761 mmHg 84%
    03:00 +12°C° 0.1 mm 4 mps 761 mmHg 84%
    04:00 +12°C° 0.1 mm 4 mps 760 mmHg 84%
    05:00 +12°C° 0.1 mm 4 mps 760 mmHg 83%
    06:00 +12°C° 0.4 mm 5 mps 760 mmHg 85%
    07:00 +12°C° 0.4 mm 5 mps 760 mmHg 87%
    08:00 +11°C° 0.4 mm 6 mps 760 mmHg 89%
    09:00 +11°C° 0.7 mm 6 mps 760 mmHg 87%
    10:00 +12°C° 0.7 mm 7 mps 760 mmHg 86%
    11:00 +12°C° 0.7 mm 7 mps 760 mmHg 85%
    12:00 +12°C° 1.3 mm 7 mps 760 mmHg 86%
    13:00 +11°C° 1.3 mm 8 mps 759 mmHg 88%
    14:00 +11°C° 1.3 mm 8 mps 759 mmHg 90%
    15:00 +10°C° 0.5 mm 8 mps 760 mmHg 88%
    16:00 +10°C° 0.5 mm 7 mps 760 mmHg 86%
    17:00 +9°C° 0.5 mm 7 mps 760 mmHg 84%
    18:00 +9°C° 0.2 mm 6 mps 761 mmHg 86%
    19:00 +8°C° 0.2 mm 6 mps 762 mmHg 88%
    20:00 +7°C° 0.2 mm 6 mps 763 mmHg 90%
    21:00 +7°C° 0.1 mm 6 mps 763 mmHg 88%
    22:00 +7°C° 0.1 mm 5 mps 763 mmHg 86%
    23:00 +7°C° 0.1 mm 5 mps 764 mmHg 84%

    2 July, Sunday

    Time Temperature Precipitation Wind Pressure Humidity
    00:00 +7°C° 0 mm 5 mps 764 mmHg 83%
    01:00 +6°C° 0 mm 5 mps 764 mmHg 82%
    02:00 +6°C° 0 mm 4 mps 764 mmHg 80%
    03:00 +5°C° 0 mm 4 mps 764 mmHg 80%
    04:00 +5°C° 0 mm 4 mps 765 mmHg 80%
    05:00 +5°C° 0 mm 4 mps 765 mmHg 80%
    06:00 +5°C° 0 mm 3 mps 765 mmHg 80%
    07:00 +5°C° 0 mm 3 mps 766 mmHg 79%
    08:00 +7°C° 0 mm 3 mps 767 mmHg 79%
    09:00 +9°C° 0 mm 3 mps 767 mmHg 72%
    10:00 +10°C° 0 mm 4 mps 767 mmHg 65%
    11:00 +12°C° 0 mm 4 mps 767 mmHg 58%
    12:00 +13°C° 0 mm 4 mps 767 mmHg 56%
    13:00 +13°C° 0 mm 4 mps 767 mmHg 55%
    14:00 +14°C° 0 mm 4 mps 766 mmHg 53%
    15:00 +13°C° 0 mm 3 mps 766 mmHg 57%
    16:00 +12°C° 0 mm 3 mps 767 mmHg 62%
    17:00 +12°C° 0 mm 2 mps 767 mmHg 66%
    18:00 +10°C° 0 mm 2 mps 768 mmHg 72%
    19:00 +8°C° 0 mm 2 mps 768 mmHg 77%
    20:00 +7°C° 0 mm 2 mps 769 mmHg 82%
    21:00 +7°C° 0 mm 2 mps 769 mmHg 83%
    22:00 +7°C° 0 mm 2 mps 769 mmHg 83%
    23:00 +6°C° 0 mm 2 mps 769 mmHg 84%
    Show more